This is the latest recevied weather packets stored in our database for station/object KG5TTF. If no packets are shown the sender has not sent any weather packets the latest 10 day(s).
| Time | Temp. | Humidity | Pressure | Rain* | Wind** | Luminosity | Snow |
|---|---|---|---|---|---|---|---|
| 1777730852 | 7.78° C | 38% | 1026.9 hPa | 0 mm | - | 42 W/m² | - |
| 1777730549 | 7.22° C | 39% | 1027 hPa | 0 mm | - | 42 W/m² | - |
| 1777730244 | 7.22° C | 38% | 1027.1 hPa | 0 mm | - | 41 W/m² | - |
| 1777729942 | 7.22° C | 39% | 1027.1 hPa | 0 mm | - | 40 W/m² | - |
| 1777729637 | 6.67° C | 40% | 1027.1 hPa | 0 mm | - | 40 W/m² | - |
| 1777729335 | 6.67° C | 40% | 1026.9 hPa | 0 mm | - | 39 W/m² | - |
| 1777729031 | 6.67° C | 41% | 1027 hPa | 0 mm | - | 38 W/m² | - |
| 1777728723 | 6.11° C | 41% | 1026.7 hPa | 0 mm | - | 37 W/m² | - |
| 1777728419 | 6.11° C | 42% | 1026.7 hPa | 0 mm | - | 36 W/m² | - |
| 1777728116 | 5.56° C | 43% | 1026.7 hPa | 0 mm | - | 35 W/m² | - |
| 1777727813 | 5.56° C | 44% | 1026.9 hPa | 0 mm | - | 34 W/m² | - |
| 1777727510 | 5.56° C | 44% | 1026.7 hPa | 0 mm | - | 33 W/m² | - |
| 1777727208 | 5° C | 44% | 1026.6 hPa | 0 mm | - | 32 W/m² | - |
| 1777726905 | 5° C | 45% | 1026.7 hPa | 0 mm | - | 31 W/m² | - |
| 1777726601 | 4.44° C | 45% | 1026.5 hPa | 0 mm | - | 29 W/m² | - |
| 1777726298 | 4.44° C | 46% | 1026.7 hPa | 0 mm | - | 27 W/m² | - |
| 1777725995 | 4.44° C | 46% | 1026.7 hPa | 0 mm | - | 25 W/m² | - |
| 1777725692 | 3.89° C | 47% | 1026.6 hPa | 0 mm | - | 24 W/m² | - |
| 1777725391 | 3.89° C | 47% | 1026.5 hPa | 0 mm | - | 22 W/m² | - |
| 1777725087 | 3.89° C | 46% | 1026.3 hPa | 0 mm | - | 19 W/m² | - |
| 1777724784 | 3.89° C | 46% | 1026.6 hPa | 0 mm | - | 17 W/m² | - |
| 1777724481 | 3.89° C | 47% | 1026.3 hPa | 0 mm | - | 16 W/m² | - |
| 1777724179 | 3.33° C | 48% | 1026.3 hPa | 0 mm | - | 12 W/m² | - |
| 1777723876 | 3.33° C | 48% | 1026.4 hPa | 0 mm | - | 9 W/m² | - |
| 1777723571 | 3.33° C | 48% | 1026.5 hPa | 0 mm | - | 7 W/m² | - |
* Rain latest hour (hover to see other rain measurements)
** Current wind speed in m/s (hover to see current wind gust speed)